Wind_Speed
1 1 0 0 2 3 5 7 9 10 12 12 12 13 13 14 13 13 13 13 12 12 11 10 10 10 9 9 8 8 8 7 6 6 6 5 5 5 5 5 5 5 5 4 4 4 5 6 6
2 2 2 1 1 3 5 7 9 9 11 11 12 13 14 14 13 13 12 12 12 11 11 10 10 10 9 9 9 8 8 7 6 6 6 5 5 5 5 5 5 5 4 4 4 5 5 5 6
3 3 2 1 1 2 3 6 7 8 9 11 12 13 14 13 13 13 12 12 12 12 11 10 9 9 9 9 9 8 7 7 7 6 6 6 5 5 5 5 5 5 4 4 4 4 4 5 6
4 3 3 2 1 1 2 3 5 7 9 10 12 12 12 13 13 12 12 12 12 12 11 10 9 9 8 8 8 8 7 7 7 6 6 6 5 5 5 5 5 5 4 4 4 4 5 6 6
5 4 4 3 1 1 1 2 4 6 8 10 11 12 12 13 12 12 12 12 12 11 11 10 9 9 8 8 7 7 7 7 7 7 6 6 5 5 5 5 5 5 5 5 5 5 5 6 6
7 6 5 4 3 3 3 3 5 6 7 9 10 11 12 13 13 12 12 12 12 11 10 10 9 9 9 8 7 7 6 6 7 7 6 6 6 5 5 5 5 4 4 5 5 5 6 7 6
8 7 6 6 5 4 4 4 5 6 7 9 10 11 12 13 13 12 12 12 11 11 10 9 8 8 8 8 8 7 7 7 7 7 6 6 6 6 5 5 5 5 4 4 4 4 5 5 5
9 9 8 7 6 5 5 5 5 6 8 9 10 12 13 13 12 12 12 12 12 11 10 9 8 8 8 8 8 7 7 7 7 7 7 6 6 5 5 5 5 6 6 5 4 4 5 3 4
10 11 10 8 8 7 6 6 6 7 8 9 10 11 12 13 13 13 12 12 12 11 10 9 9 9 8 7 7 7 6 6 7 7 7 7 6 5 5 5 6 7 6 5 4 5 5 3 3
11 11 10 10 9 8 7 6 6 8 8 9 10 11 13 14 13 13 13 12 11 11 11 10 10 10 9 7 6 7 7 7 6 7 7 7 6 5 5 5 6 6 6 5 5 5 4 3 3
13 13 12 11 10 9 8 7 7 9 9 9 10 11 13 14 13 14 13 12 11 11 11 11 11 10 9 8 7 7 7 7 7 7 7 7 7 7 7 6 6 7 6 6 6 6 5 3 3
14 14 13 12 12 11 10 9 9 9 9 10 9 10 12 13 14 13 12 12 11 11 12 12 11 10 9 9 8 8 8 7 7 7 8 7 7 7 7 7 7 7 6 6 6 6 4 3 4
14 14 14 13 13 12 11 10 9 9 10 10 10 10 12 13 13 12 12 12 11 11 11 12 11 11 10 9 9 9 8 8 7 7 8 8 8 7 7 7 7 6 6 5 5 5 5 4 4
15 15 14 14 13 12 12 12 11 10 10 10 10 11 12 12 12 12 12 12 12 12 11 11 11 10 10 10 9 9 8 8 7 8 8 7 7 7 7 7 7 6 6 5 5 4 4 3 3
16 15 15 15 15 14 14 13 12 11 11 11 12 12 12 12 12 12 12 12 12 12 11 11 11 10 11 10 10 9 9 8 8 8 8 8 8 8 8 8 7 6 6 5 4 3 3 3 3
17 16 16 16 15 15 15 14 12 12 12 12 12 12 12 12 12 12 12 12 12 12 12 12 11 11 11 11 10 10 9 9 9 8 8 8 8 8 8 8 7 6 6 4 3 3 2 3 3
18 17 16 16 16 16 16 14 13 14 13 13 12 12 12 11 11 12 13 13 12 12 12 13 12 12 12 11 11 11 10 9 9 9 8 8 8 8 7 7 6 6 5 4 3 3 2 3 4
18 17 16 17 17 17 17 17 16 15 13 12 12 12 12 12 12 12 13 13 13 13 13 13 13 13 12 12 11 11 11 10 10 9 9 8 8 8 6 6 6 6 5 4 3 3 3 4 5
18 17 16 17 18 17 17 18 17 16 14 13 12 13 13 13 13 13 14 14 14 13 14 14 13 14 13 13 12 11 11 11 10 10 10 9 8 8 7 6 6 6 6 5 5 5 5 5 6
18 17 16 17 18 18 18 17 17 16 15 15 15 14 13 14 15 15 15 15 14 14 14 14 14 14 13 13 12 11 11 11 11 11 10 11 10 9 8 7 7 7 7 7 6 6 6 7 7
18 18 17 17 17 18 18 17 16 16 16 16 16 15 15 15 15 16 15 15 15 15 14 14 14 13 14 13 12 12 11 11 11 10 11 11 10 9 9 9 9 8 9 9 8 8 8 8 8
18 18 18 18 18 18 18 18 17 16 16 16 16 16 16 16 16 15 15 15 16 16 15 14 13 13 12 12 11 12 12 11 11 11 11 11 11 11 11 10 10 10 10 10 9 9 8 8 9
18 19 19 20 19 19 19 19 17 18 17 17 17 17 16 16 16 16 16 16 17 17 16 14 13 13 13 13 12 12 12 12 12 12 11 11 12 12 11 12 12 11 10 10 10 10 9 9 10
18 19 20 21 21 21 19 19 17 18 17 17 17 16 16 16 16 16 16 16 17 17 16 15 14 13 13 14 13 13 13 13 13 13 12 12 12 12 13 13 13 12 11 11 11 11 10 10 11
19 20 20 20 21 20 19 20 18 18 18 18 18 17 16 16 16 16 16 16 16 16 16 15 15 15 15 15 15 14 14 14 14 14 13 13 13 13 13 13 13 13 13 13 13 12 11 11 12
19 19 20 20 20 19 20 21 19 18 19 19 19 19 18 17 17 17 16 17 17 16 17 16 16 16 16 16 17 16 15 15 15 14 14 14 14 13 13 13 13 14 15 15 14 14 13 13 13
20 20 20 21 21 21 22 21 20 19 19 19 19 19 19 18 19 18 18 18 18 18 18 17 17 17 18 18 18 17 17 16 16 16 16 16 15 15 15 14 14 14 14 15 16 16 15 15 14
19 20 20 21 22 22 23 22 20 19 19 20 20 19 18 19 19 19 20 20 20 19 19 18 18 18 19 19 19 18 18 17 17 17 17 17 17 17 16 15 15 15 15 15 16 16 16 17 17
19 20 20 21 22 23 23 21 19 20 20 19 19 20 20 20 20 21 21 21 21 21 20 20 19 19 19 18 18 18 18 18 18 18 18 19 18 18 17 17 16 16 17 17 17 18 17 17 17
18 20 20 21 21 22 23 21 19 20 20 21 21 21 21 21 20 21 21 22 22 22 21 20 20 20 19 19 19 19 19 19 19 19 19 19 19 19 19 19 18 18 18 19 18 18 18 18 18
Wind_Direction
240 229 235 12 58 52 45 44 41 30 27 24 23 24 21 16 12 10 9 8 6 4 7 12 12 15 20 22 23 23 20 14 13 8 2 358 353 346 339 334 326 317 302 289 276 269 270 274 273
242 245 253 277 36 57 48 39 38 32 26 21 20 20 15 11 10 9 7 5 3 2 5 9 10 12 17 21 21 19 17 13 10 8 3 0 354 351 347 340 331 321 307 293 282 271 271 273 270
243 236 249 289 354 25 42 33 32 31 23 22 19 16 11 6 5 5 5 0 359 360 1 2 7 9 14 21 22 21 17 11 8 6 0 358 354 351 345 335 331 324 311 294 288 278 283 278 266
238 242 244 271 305 337 23 29 31 25 21 18 16 14 8 2 358 2 1 0 358 357 357 357 359 7 14 19 21 20 17 11 6 2 358 356 353 349 343 337 334 324 311 295 284 283 280 266 258
238 243 248 258 280 303 332 9 19 14 19 14 11 8 3 360 358 0 360 1 359 357 358 1 3 8 12 14 17 15 12 12 8 3 358 351 347 345 344 339 329 315 305 294 283 275 269 260 261
238 246 248 247 264 290 325 346 360 2 12 9 5 2 355 355 354 354 356 359 358 357 357 359 0 3 3 2 6 9 10 9 4 2 359 355 349 342 342 341 331 318 307 297 295 287 278 275 265
236 241 245 246 262 284 318 322 346 359 12 3 358 356 353 352 352 349 353 357 355 354 355 355 359 360 1 359 356 356 4 4 0 356 355 349 346 343 342 345 339 335 329 312 297 297 289 280 264
235 240 242 243 256 277 295 307 326 343 1 359 354 355 355 356 356 351 351 357 354 353 355 353 352 352 352 354 352 348 356 359 359 357 352 348 341 342 343 341 342 339 334 328 313 304 303 278 257
236 235 240 244 252 270 286 296 321 339 348 348 347 355 357 357 354 349 347 351 352 352 353 352 349 347 346 347 344 341 346 351 351 351 347 345 345 341 338 336 337 332 330 327 320 310 303 289 267
236 234 239 242 248 260 274 280 305 323 336 342 342 349 350 350 347 345 344 346 347 348 348 351 349 346 345 343 341 336 335 338 341 343 344 342 341 336 332 329 327 326 326 323 318 312 304 287 267
238 238 243 245 247 252 264 271 290 307 326 336 339 342 346 346 345 342 340 342 343 342 343 346 346 342 342 339 333 330 328 327 330 335 338 335 331 327 321 319 321 322 322 319 316 306 295 278 255
239 240 245 249 251 255 264 272 287 302 317 325 328 338 340 342 340 337 336 338 338 341 342 343 342 337 334 332 328 324 324 320 321 325 328 326 321 323 319 315 318 319 316 312 311 306 287 260 248
237 239 243 249 253 256 261 268 281 297 309 317 321 328 330 334 336 334 332 335 334 336 339 339 335 333 329 328 326 323 325 319 317 316 319 319 315 316 314 309 314 320 316 316 312 303 291 268 238
237 238 242 248 252 255 260 265 274 289 304 312 316 319 323 326 328 329 330 331 330 329 333 331 328 327 325 325 322 321 323 321 318 317 316 317 314 310 308 306 310 314 315 314 320 309 285 262 235
237 237 239 244 247 254 259 266 278 287 296 304 308 312 316 316 320 325 328 329 326 324 326 326 322 321 323 323 323 318 317 317 317 315 315 317 315 314 309 304 297 301 306 308 317 314 273 239 224
239 239 237 241 245 252 259 265 273 283 292 298 302 304 309 311 316 321 323 323 323 324 323 321 318 314 314 315 319 314 310 310 309 308 310 313 313 312 308 304 292 292 296 298 308 303 264 229 212
236 238 238 239 245 252 259 262 267 276 284 290 296 300 305 310 313 317 318 318 318 321 320 318 315 310 306 307 311 310 306 303 304 307 306 308 309 314 307 304 296 287 284 288 289 272 252 226 216
235 238 240 241 246 252 257 261 265 272 278 283 290 298 302 304 306 310 315 314 312 313 312 311 312 306 303 302 304 307 303 298 299 303 305 306 306 310 303 297 293 286 283 285 273 257 244 231 225
235 238 242 242 246 251 254 259 264 267 270 275 282 292 299 301 304 308 310 310 306 305 306 304 306 306 301 300 298 301 304 301 298 296 294 298 297 298 295 289 287 281 280 281 269 251 244 237 229
235 239 242 242 249 253 255 258 260 261 266 275 280 288 295 300 303 307 305 305 303 304 305 300 297 300 298 296 294 298 303 305 303 300 295 296 292 288 284 277 278 279 274 270 265 259 253 246 238
237 241 243 246 250 254 255 255 259 263 268 275 281 287 290 296 301 304 306 306 306 301 301 298 296 296 297 291 291 296 298 298 302 299 294 291 289 286 281 276 272 270 265 260 257 257 251 243 244
237 239 243 246 248 251 255 257 260 264 268 274 281 285 288 292 298 303 304 306 305 300 297 294 294 293 292 289 292 294 294 296 297 298 294 290 286 285 282 276 274 268 260 257 257 254 255 249 245
239 240 244 248 251 254 259 262 262 265 269 275 281 286 288 291 297 300 300 301 302 303 294 287 288 289 286 287 289 290 289 290 294 294 294 290 284 283 282 277 272 267 262 258 258 256 253 251 247
242 245 247 248 253 258 262 264 264 268 273 276 280 284 288 291 295 297 297 297 298 301 295 283 283 285 285 282 283 284 285 288 293 292 290 289 286 280 279 278 270 265 263 257 258 258 256 255 250
245 247 249 249 253 259 261 263 266 271 277 280 283 284 286 288 292 294 292 293 296 296 294 283 282 285 284 282 281 281 284 287 291 292 291 287 285 283 278 275 271 264 260 258 257 257 257 258 256
244 248 251 256 260 260 259 263 269 271 275 280 283 283 284 287 289 289 288 289 292 290 289 288 287 286 284 284 282 283 283 284 286 287 286 284 282 282 278 273 270 265 261 260 259 257 258 262 260
244 248 254 258 261 262 262 266 269 270 272 277 281 282 284 288 290 288 289 289 289 289 288 287 288 285 282 282 280 279 280 281 283 283 282 282 280 279 279 278 273 269 264 260 259 259 257 259 260
247 250 255 258 262 266 267 269 272 275 277 280 281 284 287 290 292 292 290 289 290 291 293 291 285 283 283 282 280 279 278 279 280 280 281 281 278 276 276 277 271 268 268 264 262 262 259 257 258
251 253 255 258 261 266 271 273 275 276 278 280 281 282 285 288 287 288 287 286 288 289 293 291 289 285 284 284 279 278 278 276 277 277 277 276 275 275 275 272 269 267 265 263 260 260 261 260 261
255 256 257 260 264 268 272 276 277 276 277 279 281 282 285 287 285 286 287 286 286 286 289 290 290 290 288 286 282 279 277 274 275 275 274 275 275 273 273 270 266 265 265 262 259 259 261 260 260
Height
5894 5894 5894 5895 5895 5895 5894 5893 5892 5891 5890 5890 5889 5888 5887 5887 5887 5888 5885 5883 5882 5881 5879 5878 5877 5875 5874 5873 5872 5871 5871 5870 5870 5870 5870 5869 5869 5869 5869 5868 5868 5868 5868 5868 5868 5868 5869 5869 5869
5894 5894 5895 5895 5895 5894 5895 5893 5892 5891 5891 5890 5889 5889 5888 5887 5887 5886 5884 5883 5882 5881 5879 5878 5877 5875 5874 5873 5872 5871 5871 5870 5870 5870 5869 5869 5869 5869 5868 5868 5867 5867 5867 5867 5867 5867 5868 5868 5868
5894 5895 5896 5895 5895 5895 5895 5894 5893 5892 5891 5891 5890 5890 5889 5888 5887 5886 5885 5883 5882 5881 5879 5878 5876 5875 5874 5873 5872 5871 5870 5870 5870 5869 5869 5869 5868 5868 5868 5867 5867 5866 5866 5866 5866 5866 5866 5866 5866
5894 5895 5896 5896 5895 5894 5894 5894 5893 5892 5892 5891 5891 5890 5889 5889 5887 5886 5884 5883 5882 5881 5879 5878 5876 5875 5874 5873 5872 5871 5870 5870 5869 5869 5869 5868 5868 5867 5867 5866 5866 5865 5865 5864 5865 5865 5865 5865 5865
5893 5894 5895 5894 5894 5894 5894 5894 5894 5893 5892 5891 5891 5890 5889 5889 5887 5886 5884 5883 5882 5881 5879 5878 5876 5875 5874 5873 5872 5871 5870 5870 5869 5869 5868 5868 5867 5867 5866 5866 5865 5864 5864 5864 5864 5864 5864 5864 5864
5893 5893 5894 5894 5893 5893 5893 5894 5894 5893 5892 5892 5891 5890 5889 5888 5887 5886 5884 5883 5882 5880 5879 5878 5876 5875 5874 5873 5872 5871 5870 5870 5869 5868 5868 5867 5866 5866 5865 5865 5864 5864 5863 5863 5862 5862 5862 5862 5862
5892 5892 5892 5893 5892 5892 5893 5893 5893 5893 5892 5892 5891 5890 5889 5888 5887 5885 5884 5882 5881 5880 5879 5877 5876 5875 5874 5873 5872 5871 5870 5869 5869 5868 5867 5866 5866 5865 5865 5864 5863 5863 5862 5862 5861 5861 5860 5860 5860
5890 5892 5891 5892 5891 5892 5892 5892 5892 5892 5892 5891 5890 5889 5888 5887 5886 5884 5883 5882 5881 5879 5878 5877 5875 5874 5874 5873 5872 5871 5870 5869 5868 5867 5866 5866 5865 5864 5864 5863 5863 5862 5861 5861 5860 5860 5859 5858 5859
5889 5891 5890 5891 5891 5891 5891 5891 5891 5892 5891 5890 5890 5889 5888 5886 5885 5884 5883 5881 5880 5879 5877 5876 5875 5874 5873 5872 5871 5870 5869 5868 5867 5866 5865 5865 5864 5864 5863 5863 5862 5861 5860 5860 5859 5858 5857 5857 5857
5888 5889 5889 5890 5890 5890 5890 5890 5890 5890 5890 5890 5889 5888 5887 5886 5884 5883 5882 5881 5879 5878 5877 5876 5875 5873 5872 5871 5870 5869 5869 5868 5866 5865 5864 5864 5863 5863 5862 5861 5861 5860 5859 5858 5857 5857 5856 5856 5856
5886 5887 5888 5888 5888 5888 5889 5889 5889 5889 5889 5889 5888 5887 5886 5885 5883 5882 5881 5880 5879 5877 5876 5875 5874 5873 5871 5870 5869 5868 5867 5867 5865 5864 5863 5862 5862 5861 5861 5860 5860 5859 5858 5857 5856 5855 5855 5855 5855
5884 5885 5885 5886 5886 5887 5887 5888 5888 5888 5888 5888 5887 5886 5885 5884 5882 5881 5880 5879 5878 5877 5875 5874 5873 5872 5871 5869 5868 5867 5866 5865 5864 5863 5862 5861 5860 5860 5859 5859 5858 5857 5856 5855 5854 5854 5853 5853 5854
5882 5883 5883 5884 5884 5885 5886 5886 5886 5887 5887 5886 5885 5884 5884 5883 5882 5880 5879 5878 5877 5875 5874 5873 5872 5871 5870 5868 5867 5866 5865 5863 5862 5861 5860 5859 5859 5858 5858 5857 5856 5855 5854 5853 5852 5851 5851 5852 5852
5880 5881 5881 5882 5883 5884 5884 5884 5885 5885 5885 5884 5884 5883 5883 5882 5880 5879 5878 5877 5875 5874 5873 5872 5871 5869 5868 5867 5866 5864 5863 5862 5860 5860 5859 5858 5857 5856 5856 5855 5854 5854 5853 5852 5851 5849 5849 5850 5851
5877 5879 5880 5880 5881 5882 5882 5883 5883 5883 5883 5883 5883 5882 5881 5880 5879 5878 5877 5875 5874 5873 5872 5870 5869 5868 5866 5865 5864 5863 5861 5860 5859 5858 5857 5856 5855 5854 5854 5853 5852 5852 5851 5850 5849 5848 5848 5848 5850
5875 5877 5878 5879 5879 5879 5882 5881 5881 5881 5881 5881 5881 5880 5880 5878 5877 5876 5875 5874 5872 5871 5870 5868 5867 5866 5864 5863 5862 5861 5860 5859 5857 5856 5855 5854 5853 5853 5852 5851 5850 5850 5850 5849 5849 5848 5848 5849 5850
5872 5874 5875 5876 5876 5877 5878 5878 5878 5878 5878 5878 5878 5878 5877 5876 5875 5874 5873 5872 5870 5869 5868 5866 5865 5864 5862 5861 5860 5859 5858 5857 5856 5854 5853 5853 5852 5851 5850 5849 5848 5849 5849 5849 5849 5849 5849 5850 5850
5869 5871 5872 5873 5874 5874 5874 5875 5875 5875 5876 5876 5876 5875 5875 5874 5873 5872 5871 5869 5868 5867 5865 5864 5863 5861 5859 5858 5857 5856 5855 5854 5854 5852 5851 5850 5850 5849 5848 5848 5847 5847 5848 5848 5848 5848 5849 5850 5850
5866 5867 5869 5870 5870 5871 5871 5872 5873 5873 5873 5873 5873 5872 5872 5871 5871 5869 5868 5866 5865 5864 5863 5861 5860 5859 5857 5856 5855 5854 5853 5852 5851 5850 5849 5848 5848 5847 5846 5846 5846 5846 5846 5847 5847 5848 5848 5849 5849
5863 5864 5866 5867 5867 5867 5868 5869 5870 5870 5870 5870 5870 5870 5869 5868 5868 5867 5865 5863 5862 5861 5860 5858 5857 5856 5854 5853 5853 5851 5850 5849 5848 5847 5847 5846 5845 5845 5845 5845 5845 5845 5845 5845 5845 5846 5847 5847 5848
5860 5862 5863 5863 5864 5864 5865 5867 5867 5867 5867 5867 5867 5867 5866 5865 5864 5864 5862 5861 5859 5858 5856 5855 5854 5853 5851 5850 5849 5848 5847 5847 5846 5845 5844 5843 5843 5843 5843 5842 5842 5842 5843 5843 5843 5844 5845 5846 5847
5857 5858 5859 5860 5860 5861 5863 5863 5865 5864 5864 5864 5864 5864 5863 5862 5861 5860 5859 5857 5856 5854 5853 5852 5851 5850 5848 5847 5846 5846 5845 5844 5843 5842 5841 5841 5840 5840 5840 5840 5840 5840 5840 5840 5841 5842 5843 5844 5845
5854 5854 5855 5856 5857 5858 5858 5860 5862 5861 5861 5861 5861 5860 5860 5859 5858 5857 5855 5854 5852 5850 5848 5847 5847 5846 5845 5844 5843 5843 5842 5841 5840 5839 5839 5838 5837 5837 5837 5837 5837 5837 5837 5838 5838 5839 5840 5841 5842
5850 5851 5852 5853 5853 5855 5855 5856 5858 5857 5857 5857 5857 5857 5856 5855 5854 5853 5852 5850 5848 5846 5844 5843 5843 5842 5841 5840 5839 5839 5838 5838 5837 5836 5835 5835 5834 5834 5834 5834 5834 5834 5835 5835 5836 5836 5837 5838 5839
5847 5848 5849 5849 5850 5851 5852 5852 5854 5854 5854 5854 5853 5853 5852 5852 5851 5850 5848 5847 5845 5843 5841 5839 5838 5838 5837 5836 5835 5835 5834 5834 5833 5833 5832 5831 5831 5831 5830 5830 5830 5831 5831 5832 5833 5834 5835 5835 5836
5843 5844 5846 5846 5847 5848 5848 5848 5850 5850 5850 5850 5849 5848 5848 5848 5847 5846 5844 5843 5841 5839 5837 5835 5834 5833 5833 5832 5832 5831 5830 5830 5829 5829 5828 5828 5827 5827 5827 5827 5827 5827 5828 5829 5829 5830 5831 5832 5833
5839 5840 5842 5842 5842 5843 5844 5845 5846 5846 5846 5846 5845 5844 5843 5843 5842 5841 5839 5838 5836 5834 5832 5830 5829 5828 5828 5827 5827 5826 5826 5825 5825 5825 5824 5824 5823 5823 5823 5823 5823 5823 5824 5825 5826 5826 5827 5828 5829
5835 5836 5837 5838 5838 5838 5839 5840 5842 5842 5841 5841 5840 5839 5839 5838 5837 5836 5834 5833 5831 5829 5828 5826 5825 5824 5823 5822 5822 5821 5821 5821 5820 5820 5820 5820 5819 5819 5819 5819 5819 5819 5820 5820 5821 5822 5823 5824 5825
5831 5832 5833 5833 5834 5834 5834 5838 5838 5837 5837 5836 5835 5835 5834 5833 5832 5831 5830 5828 5827 5825 5823 5821 5820 5819 5818 5817 5816 5816 5816 5816 5815 5815 5815 5815 5814 5814 5814 5815 5815 5815 5816 5816 5817 5818 5819 5820 5821
5827 5828 5829 5829 5830 5830 5830 5834 5832 5832 5831 5831 5831 5830 5829 5828 5827 5825 5824 5822 5821 5819 5818 5816 5815 5814 5813 5812 5811 5810 5810 5810 5810 5810 5810 5810 5809 5809 5810 5810 5810 5810 5811 5811 5812 5813 5814 5815 5816